| time (UTC) | temp C | wind direction | speed KPH | gust KPH | rain 1hr cm | rain 24hr cm | rain mn cm | humidity % | barometer mb |
| 20260508140955 | 9 | 355 | 9.7 | 22.5 | 0.00 | 0.33 | 0.00 | 71 | 1005.6 |
| 20260508140015 | 10 | 285 | 6.4 | 27.4 | 0.00 | 0.36 | 0.00 | 69 | 1005.5 |
| 20260508134954 | 10 | 231 | 8.0 | 27.4 | 0.00 | 0.36 | 0.00 | 72 | 1005.6 |
| 20260508133936 | 10 | 246 | 6.4 | 19.3 | 0.00 | 0.41 | 0.00 | 71 | 1005.6 |
| 20260508133001 | 10 | 250 | 6.4 | 24.1 | 0.00 | 0.48 | 0.00 | 72 | 1005.5 |
| 20260508131944 | 9 | 248 | 6.4 | 24.1 | 0.00 | 0.56 | 0.00 | 72 | 1005.4 |
| 20260508130919 | 9 | 338 | 6.4 | 24.1 | 0.00 | 0.61 | 0.00 | 70 | 1005.3 |
| 20260508124742 | 10 | 333 | 4.8 | 20.9 | 0.00 | 0.84 | 0.00 | 71 | 1005.1 |
| 20260508122702 | 9 | 286 | 4.8 | 19.3 | 0.00 | 1.12 | 0.00 | 71 | 1005.0 |
| 20260508121720 | 9 | 205 | 6.4 | 19.3 | 0.00 | 1.22 | 0.00 | 71 | 1005.0 |
| 20260508120735 | 8 | 317 | 6.4 | 19.3 | 0.00 | 1.37 | 0.00 | 71 | 1004.8 |
| 20260508115755 | 8 | 250 | 4.8 | 16.1 | 0.00 | 1.55 | 0.00 | 74 | 1004.9 |
| 20260508114741 | 8 | 273 | 3.2 | 16.1 | 0.00 | 1.63 | 0.00 | 74 | 1004.8 |
| 20260508113709 | 8 | 257 | 1.6 | 14.5 | 0.00 | 1.63 | 0.00 | 75 | 1004.8 |
| 20260508112704 | 8 | 348 | 3.2 | 14.5 | 0.00 | 1.63 | 0.00 | 76 | 1004.6 |
| 20260508111649 | 8 | 277 | 3.2 | 12.9 | 0.00 | 1.63 | 0.00 | 80 | 1004.6 |
| 20260508110709 | 7 | 338 | 3.2 | 12.9 | 0.00 | 1.63 | 0.00 | 84 | 1004.5 |
| 20260508105658 | 7 | 288 | 1.6 | 9.7 | 0.00 | 1.63 | 0.00 | 87 | 1004.3 |
| 20260508104638 | 6 | 355 | 1.6 | 4.8 | 0.00 | 1.63 | 0.00 | 90 | 1004.3 |
| 20260508103611 | 5 | 303 | 0.0 | 4.8 | 0.00 | 1.63 | 0.00 | 91 | 1004.2 |
| 20260508102617 | 5 | 268 | 0.0 | 3.2 | 0.00 | 1.63 | 0.00 | 91 | 1004.3 |
| 20260508101545 | 4 | 319 | 0.0 | 3.2 | 0.00 | 1.63 | 0.00 | 91 | 1004.1 |
| 20260508100528 | 4 | 296 | 0.0 | 3.2 | 0.00 | 1.63 | 0.00 | 91 | 1004.1 |
| 20260508095511 | 3 | 275 | 0.0 | 0.0 | 0.00 | 1.63 | 0.00 | 91 | 1003.9 |
| 20260508094444 | 3 | 281 | 0.0 | 1.6 | 0.00 | 1.63 | 0.00 | 91 | 1003.8 |
| 20260508093446 | 3 | 286 | 0.0 | 3.2 | 0.00 | 1.63 | 0.00 | 91 | 1003.8 |
| 20260508092503 | 3 | 275 | 0.0 | 0.0 | 0.00 | 1.63 | 0.00 | 91 | 1003.7 |
| 20260508091443 | 4 | 275 | 0.0 | 0.0 | 0.00 | 1.65 | 0.00 | 91 | 1003.7 |
| 20260508090412 | 4 | 236 | 0.0 | 3.2 | 0.00 | 1.65 | 0.00 | 91 | 1003.6 |
| 20260508084245 | 5 | 323 | 0.0 | 4.8 | 0.00 | 1.68 | 0.00 | 91 | 1003.4 |
| 20260508083247 | 5 | 326 | 0.0 | 1.6 | 0.00 | 1.68 | 0.00 | 91 | 1003.3 |
| 20260508082259 | 5 | 342 | 0.0 | 0.0 | 0.00 | 1.68 | 0.00 | 91 | 1003.4 |
| 20260508081310 | 5 | 342 | 0.0 | 0.0 | 0.00 | 1.68 | 0.00 | 91 | 1003.5 |
| 20260508080304 | 5 | 342 | 0.0 | 3.2 | 0.00 | 1.68 | 0.00 | 91 | 1003.4 |
| 20260508075322 | 5 | 342 | 0.0 | 1.6 | 0.00 | 1.68 | 0.00 | 91 | 1003.5 |
| 20260508073231 | 5 | 341 | 0.0 | 0.0 | 0.00 | 1.68 | 0.00 | 92 | 1003.4 |
| 20260508072157 | 5 | 342 | 0.0 | 0.0 | 0.00 | 1.68 | 0.00 | 92 | 1003.5 |
| 20260508071145 | 5 | 341 | 0.0 | 1.6 | 0.00 | 1.68 | 0.00 | 92 | 1003.4 |
| 20260508070138 | 6 | 342 | 0.0 | 3.2 | 0.00 | 1.68 | 0.00 | 92 | 1003.4 |
| 20260508065156 | 6 | 350 | 0.0 | 3.2 | 0.00 | 1.70 | 0.00 | 92 | 1003.4 |
| 20260508064123 | 6 | 336 | 0.0 | 3.2 | 0.00 | 1.73 | 0.00 | 92 | 1003.4 |
| 20260508061955 | 6 | 355 | 0.0 | 0.0 | 0.00 | 1.80 | 0.00 | 92 | 1003.6 |
| 20260508061008 | 6 | 355 | 0.0 | 0.0 | 0.00 | 1.91 | 0.00 | 92 | 1003.6 |
| 20260508060031 | 6 | 355 | 0.0 | 0.0 | 0.00 | 1.93 | 0.00 | 92 | 1003.6 |
| 20260508055019 | 6 | 355 | 0.0 | 0.0 | 0.00 | 1.96 | 0.00 | 92 | 1003.6 |
| 20260508053945 | 5 | 51 | 0.0 | 1.6 | 0.00 | 2.01 | 0.00 | 92 | 1003.5 |
| 20260508052939 | 5 | 49 | 0.0 | 0.0 | 0.00 | 2.03 | 0.00 | 92 | 1003.4 |
| 20260508050811 | 5 | 335 | 0.0 | 1.6 | 0.00 | 2.16 | 0.00 | 92 | 1003.3 |
| 20260508045746 | 5 | 267 | 0.0 | 3.2 | 0.00 | 2.29 | 0.00 | 92 | 1003.3 |
| 20260508044733 | 6 | 313 | 0.0 | 1.6 | 0.00 | 2.34 | 0.00 | 92 | 1003.5 |
| 20260508043753 | 6 | 313 | 0.0 | 3.2 | 0.00 | 2.36 | 0.00 | 92 | 1003.7 |
| 20260508042805 | 6 | 263 | 0.0 | 1.6 | 0.00 | 2.36 | 0.00 | 92 | 1003.7 |
| 20260508040644 | 6 | 332 | 0.0 | 6.4 | 0.00 | 2.36 | 0.00 | 92 | 1003.8 |
| 20260508035613 | 6 | 261 | 0.0 | 3.2 | 0.00 | 2.36 | 0.00 | 92 | 1004.2 |
| 20260508034544 | 6 | 254 | 0.0 | 4.8 | 0.00 | 2.36 | 0.00 | 92 | 1004.2 |
| 20260508033609 | 6 | 278 | 0.0 | 4.8 | 0.00 | 2.36 | 0.00 | 92 | 1004.0 |
| 20260508032535 | 5 | 279 | 0.0 | 3.2 | 0.00 | 2.39 | 0.00 | 91 | 1004.0 |
| 20260508023126 | 6 | 250 | 0.0 | 0.0 | 0.00 | 2.39 | 2.39 | 90 | 1003.3 |
| 20260508020951 | 6 | 239 | 0.0 | 3.2 | 0.00 | 2.39 | 2.39 | 90 | 1003.8 |
| 20260508015931 | 6 | 231 | 0.0 | 3.2 | 0.00 | 2.39 | 2.39 | 90 | 1003.9 |
| 20260508014912 | 6 | 265 | 0.0 | 3.2 | 0.00 | 2.39 | 2.39 | 90 | 1003.9 |
| 20260508013920 | 6 | 263 | 0.0 | 3.2 | 0.00 | 2.39 | 2.39 | 89 | 1004.1 |
| 20260508012854 | 7 | 259 | 0.0 | 1.6 | 0.00 | 2.39 | 2.39 | 88 | 1003.9 |
| 20260508011912 | 7 | 267 | 0.0 | 1.6 | 0.00 | 2.39 | 2.39 | 88 | 1003.9 |
| 20260508005823 | 7 | 248 | 0.0 | 0.0 | 0.00 | 2.39 | 2.39 | 87 | 1003.9 |
| 20260508004846 | 7 | 249 | 0.0 | 0.0 | 0.00 | 2.39 | 2.39 | 87 | 1003.8 |
| 20260508003902 | 7 | 249 | 0.0 | 1.6 | 0.00 | 2.39 | 2.39 | 86 | 1003.6 |
| 20260508002855 | 7 | 252 | 0.0 | 0.0 | 0.00 | 2.39 | 2.39 | 86 | 1003.7 |
| 20260508001910 | 7 | 273 | 1.6 | 4.8 | 0.00 | 2.39 | 2.39 | 86 | 1003.6 |
| 20260508000859 | 8 | 259 | 0.0 | 9.7 | 0.00 | 2.39 | 2.39 | 85 | 1003.3 |
| 20260507235922 | 8 | 275 | 1.6 | 9.7 | 0.00 | 2.39 | 2.39 | 84 | 1003.1 |
| 20260507234940 | 8 | 248 | 0.0 | 3.2 | 0.00 | 2.39 | 2.39 | 83 | 1003.2 |
| 20260507232835 | 9 | 265 | 0.0 | 6.4 | 0.00 | 2.39 | 2.39 | 82 | 1003.2 |
| 20260507230707 | 10 | 277 | 1.6 | 9.7 | 0.00 | 2.39 | 2.39 | 79 | 1003.1 |
| 20260507225654 | 10 | 231 | 1.6 | 11.3 | 0.00 | 2.39 | 2.39 | 78 | 1003.0 |
| 20260507223610 | 11 | 279 | 1.6 | 8.0 | 0.00 | 2.39 | 2.39 | 77 | 1003.1 |
| 20260507221435 | 11 | 262 | 3.2 | 11.3 | 0.00 | 2.39 | 2.39 | 78 | 1003.0 |
| 20260507220423 | 11 | 335 | 3.2 | 12.9 | 0.00 | 2.39 | 2.39 | 77 | 1002.8 |
| 20260507215412 | 11 | 278 | 3.2 | 12.9 | 0.00 | 2.39 | 2.39 | 78 | 1002.9 |
| 20260507214342 | 11 | 302 | 4.8 | 12.9 | 0.00 | 2.39 | 2.39 | 79 | 1003.1 |
| 20260507213357 | 11 | 248 | 4.8 | 14.5 | 0.00 | 2.39 | 2.39 | 79 | 1003.2 |
| 20260507212339 | 11 | 232 | 3.2 | 14.5 | 0.00 | 2.39 | 2.39 | 79 | 1003.3 |
| 20260507205049 | 12 | 271 | 4.8 | 16.1 | 0.00 | 2.39 | 2.39 | 81 | 1003.2 |
| 20260507204112 | 12 | 240 | 3.2 | 16.1 | 0.00 | 2.39 | 2.39 | 82 | 1003.1 |
| 20260507203118 | 11 | 217 | 4.8 | 14.5 | 0.00 | 2.39 | 2.39 | 82 | 1003.1 |
| 20260507202047 | 12 | 250 | 4.8 | 11.3 | 0.00 | 2.39 | 2.39 | 84 | 1003.0 |
| 20260507201029 | 12 | 252 | 4.8 | 14.5 | 0.00 | 2.39 | 2.39 | 84 | 1002.8 |
| 20260507194848 | 11 | 237 | 6.4 | 14.5 | 0.00 | 2.39 | 2.39 | 87 | 1002.9 |
| 20260507193816 | 12 | 235 | 4.8 | 14.5 | 0.00 | 2.39 | 2.39 | 86 | 1002.9 |
| 20260507192825 | 12 | 252 | 6.4 | 14.5 | 0.00 | 2.39 | 2.39 | 87 | 1003.0 |
| 20260507190659 | 12 | 273 | 4.8 | 14.5 | 0.00 | 2.39 | 2.39 | 88 | 1003.0 |
| 20260507185650 | 13 | 277 | 3.2 | 12.9 | 0.00 | 2.39 | 2.39 | 90 | 1002.9 |
| 20260507182438 | 12 | 284 | 4.8 | 11.3 | 0.00 | 2.39 | 2.39 | 92 | 1002.8 |
| 20260507181425 | 12 | 286 | 4.8 | 12.9 | 0.00 | 2.39 | 2.39 | 93 | 1002.9 |
| 20260507180351 | 11 | 265 | 4.8 | 12.9 | 0.00 | 2.39 | 2.39 | 93 | 1002.7 |
| 20260507175325 | 11 | 275 | 3.2 | 12.9 | 0.00 | 2.39 | 2.39 | 93 | 1002.7 |
| 20260507174347 | 11 | 337 | 3.2 | 11.3 | 0.00 | 2.39 | 2.39 | 94 | 1002.5 |
| 20260507172224 | 11 | 306 | 1.6 | 6.4 | 0.00 | 2.39 | 2.39 | 94 | 1002.8 |
| 20260507171242 | 11 | 269 | 1.6 | 8.0 | 0.00 | 2.39 | 2.39 | 94 | 1002.9 |
| 20260507165054 | 10 | 262 | 0.0 | 4.8 | 0.00 | 2.39 | 2.39 | 94 | 1003.0 |
| 20260507164113 | 10 | 355 | 0.0 | 4.8 | 0.00 | 2.39 | 2.39 | 94 | 1003.0 |
| 20260507163113 | 10 | 317 | 0.0 | 4.8 | 0.00 | 2.39 | 2.39 | 94 | 1003.3 |
| 20260507162041 | 9 | 317 | 0.0 | 6.4 | 0.00 | 2.39 | 2.39 | 94 | 1003.4 |
| 20260507161100 | 8 | 355 | 1.6 | 9.7 | 0.00 | 2.39 | 2.39 | 94 | 1002.5 |
| 20260507160041 | 8 | 289 | 1.6 | 11.3 | 0.08 | 2.39 | 2.39 | 94 | 1003.7 |
| 20260507155050 | 8 | 315 | 3.2 | 11.3 | 0.10 | 2.39 | 2.39 | 94 | 1003.6 |
| 20260507152922 | 8 | 242 | 1.6 | 8.0 | 0.08 | 2.34 | 2.34 | 94 | 1003.5 |
| 20260507151934 | 8 | 275 | 0.0 | 8.0 | 0.13 | 2.34 | 2.34 | 94 | 1002.8 |
| 20260507150906 | 8 | 314 | 0.0 | 9.7 | 0.33 | 2.31 | 2.31 | 94 | 1002.9 |
| 20260507145902 | 8 | 269 | 1.6 | 9.7 | 0.79 | 2.21 | 2.24 | 93 | 1003.5 |
| 20260507144837 | 8 | 242 | 3.2 | 8.0 | 0.28 | 2.16 | 2.16 | 93 | 1003.8 |
| 20260507143807 | 8 | 223 | 1.6 | 4.8 | 0.18 | 2.08 | 2.08 | 94 | 1003.6 |
| 20260507142744 | 9 | 279 | 1.6 | 4.8 | 0.00 | 2.06 | 2.06 | 94 | 1003.6 |